Home   Weather   Pago Pago   Past weeks

Flag for American Samoa Past Weather in Pago Pago, American Samoa — Yesterday and Last 2 Weeks

Now
87 °F

Broken clouds.


Feels Like: 103 °F
Forecast: 78 / 86 °F
Wind: 8 mph from Southeast

Location: Pago Pago / Int. Airp.

Current Time: Sep 30, 2016 at 2:36:41 PM

Latest Report: Sep 30, 2016 at 1:51 PM


Visibility: 12 mi

Pressure: 29.87 "Hg

Humidity: 83%

Dew Point: 81 °F

Location of Pago PagoLocation

Past Weather in Pago Pago — Graph

°F

Pago Pago Temperature Yesterday

Maximum temperature yesterday: 85 °F (at 1:50 PM)
Minimum temperature yesterday: 78 °F (at 10:51 PM)
Average temperature yesterday: 82 °F

High & Low Weather Summary for the Past Weeks

 TemperatureHumidityPressure
High89 °F (Sep 26, 1:53 PM)100% (Sep 20, 3:50 AM)29.95 "Hg (Sep 20, 3:50 AM)
Low75 °F (Sep 20, 3:50 AM)72% (Sep 21, 11:50 AM)29.78 "Hg (Sep 27, 3:51 PM)
Average82 °F90%29.86 "Hg
* Reported Sep 15 12:50 PM — Sep 30 12:50 PM, Pago Pago, Weather by CustomWeather, © 2016

Note: Actual official high and low records may vary slightly from our data, if they occured in-between our weather recording intervals... More about our weather records

Advertising

Pago Pago Weather History for the Previous 24 Hours

Scroll right to see more
 ConditionsComfort  
Time TempWeatherWind HumidityBarometerVisibility
12:50 PM
Fri, Sep 30
88 °FBroken clouds.8 mph79%29.88 "Hg12 mi
11:50 AM86 °FBroken clouds.6 mph82%29.90 "Hg12 mi
10:50 AM85 °FBroken clouds.6 mph82%29.92 "Hg12 mi
9:51 AM84 °FBroken clouds.5 mph86%29.93 "Hg12 mi
8:51 AM83 °FBroken clouds.No wind90%29.93 "Hg12 mi
7:50 AM80 °FBroken clouds.No wind98%29.92 "Hg12 mi
6:50 AM78 °FBroken clouds.No wind100%29.90 "Hg12 mi
5:54 AM78 °FPartly cloudy.2 mph100%29.86 "Hg12 mi
2:50 AM77 °FPassing clouds.3 mph100%29.84 "Hg10 mi
1:50 AM79 °FPassing clouds.3 mph96%29.86 "Hg10 mi
12:50 AM79 °FPassing clouds.No wind97%29.87 "Hg10 mi
11:50 PM
Thu, Sep 29
81 °FPartly cloudy.5 mph93%29.88 "Hg10 mi
10:51 PM78 °FPassing clouds.2 mph98%29.89 "Hg10 mi
9:50 PM80 °FPassing clouds.No wind96%29.88 "Hg10 mi
8:50 PM81 °FPartly cloudy.No wind92%29.88 "Hg10 mi
6:50 PM83 °FPartly cloudy.7 mph88%29.85 "Hg10 mi
6:00 PM84 °FBroken clouds.7 mph85%29.83 "Hg12 mi
5:51 PM84 °FBroken clouds.7 mph85%29.83 "Hg12 mi
4:52 PM85 °FBroken clouds.8 mph84%29.83 "Hg12 mi
3:55 PM85 °FPartly sunny.8 mph83%29.83 "Hg12 mi
2:50 PM84 °FCloudy.10 mph91%29.85 "Hg12 mi
Weather by CustomWeather, © 2016

See weather overviewHow to use our weather pages